Lapse_Rate
6.7 6.7 6.7 6.8 6.7 6.8 6.8 6.9 6.9 6.9 6.8 6.8 6.8 6.8 6.8 6.7 6.7 6.8 6.8 6.8 6.8 6.8 6.7 6.7 6.8 7.2 7.1 6.9 6.8 6.8 6.8 6.8 6.8 7.1 7.0 7.1 7.2 6.9 7.2 7.9 8.0 7.9 8.2 8.5 8.1 8.0 8.1
6.6 6.7 6.7 6.7 6.8 6.8 6.9 6.9 7.0 7.0 7.0 7.0 7.0 6.9 6.9 6.9 6.9 6.7 6.6 6.9 6.9 6.9 6.9 6.8 6.8 6.9 7.0 7.2 6.9 7.0 6.9 6.8 6.8 6.9 7.0 6.9 6.8 7.1 7.5 7.7 7.9 7.8 7.9 8.0 8.0 8.0 8.0
6.4 6.4 6.5 6.6 6.6 6.7 6.8 6.8 6.8 7.0 7.1 7.2 7.1 7.2 7.1 7.1 7.1 7.0 6.9 6.8 6.8 6.9 6.9 6.9 6.9 6.9 7.1 7.0 7.1 7.2 7.0 7.0 7.0 7.1 7.0 6.6 6.6 7.0 7.2 7.6 7.6 7.6 7.5 7.8 7.9 7.9 7.9
6.4 6.4 6.4 6.4 6.4 6.5 6.5 6.6 6.7 6.8 6.8 6.9 7.1 7.1 7.2 7.3 7.2 7.2 7.2 7.1 7.1 7.0 6.9 7.0 6.9 6.9 7.2 7.2 7.2 7.2 7.1 7.0 7.0 7.1 7.1 6.5 6.5 6.5 7.0 7.6 7.5 7.3 7.6 7.9 8.8 8.5 8.4
6.3 6.4 6.5 6.5 6.6 6.6 6.6 6.6 6.6 6.6 6.7 6.7 6.8 6.8 6.9 7.1 7.3 7.3 7.2 7.3 7.2 7.2 7.2 7.0 7.0 7.0 7.1 7.3 7.2 7.3 7.7 7.4 7.3 7.3 7.0 6.5 6.5 6.5 7.1 7.3 7.6 7.9 7.8 7.9 8.5 9.0 9.1
6.3 6.4 6.3 6.4 6.4 6.5 6.6 6.7 6.7 6.7 6.7 6.7 6.7 6.7 6.7 6.8 7.0 7.2 7.2 7.3 7.3 7.4 7.3 7.3 7.1 7.1 7.2 7.0 7.3 7.3 7.3 7.4 7.5 7.7 7.1 6.7 6.6 6.8 7.2 7.7 8.0 8.2 8.2 8.3 9.3 8.9 8.5
6.1 6.1 6.2 6.4 6.4 6.5 6.5 6.5 6.5 6.6 6.6 6.7 6.8 6.9 6.7 6.7 6.9 7.0 7.2 7.2 7.2 7.4 7.6 7.4 7.0 7.2 7.3 7.4 7.4 7.3 7.2 7.2 7.0 7.0 6.9 7.0 7.3 7.3 7.6 7.7 8.1 8.6 9.6 9.5 9.4 9.4 8.2
5.8 5.9 6.2 6.2 6.3 6.4 6.5 6.5 6.4 6.4 6.5 6.5 6.7 6.8 6.8 6.8 6.9 7.0 7.0 7.2 7.2 6.9 7.2 7.2 7.5 7.4 7.7 7.1 7.2 7.4 7.2 7.2 6.8 6.7 6.8 7.0 7.0 7.7 8.3 8.3 8.2 8.4 9.3 9.6 9.5 9.3 9.4
5.7 5.9 6.0 6.1 6.2 6.4 6.4 6.4 6.4 6.5 6.5 6.5 6.6 6.8 6.8 6.7 6.7 6.8 7.0 7.0 7.0 7.1 6.9 7.4 7.6 7.5 7.8 7.6 7.5 8.0 7.1 7.5 7.0 7.1 7.2 7.3 7.5 7.6 8.0 8.2 8.8 8.4 8.4 9.5 9.5 9.5 9.4
5.7 5.8 5.8 6.0 6.1 6.2 6.3 6.4 6.4 6.4 6.6 6.6 6.7 6.8 7.0 6.9 6.9 6.8 7.0 7.0 7.0 7.0 6.9 7.3 7.1 7.6 8.1 7.9 7.5 8.4 7.7 7.6 7.3 7.3 7.7 7.6 7.8 7.8 7.7 7.8 8.4 9.0 8.7 9.4 9.5 9.4 9.4
5.4 5.5 5.6 5.8 5.9 6.1 6.2 6.2 6.2 6.4 6.5 6.6 6.7 6.7 6.9 7.2 7.2 7.1 7.1 7.2 7.1 7.2 6.4 7.7 7.0 7.3 7.6 8.0 7.7 7.9 8.1 7.5 7.5 7.7 8.2 7.2 8.2 8.0 8.0 7.6 8.1 8.0 8.5 9.3 9.2 9.2 9.3
5.2 5.3 5.5 5.5 5.6 5.8 5.8 5.9 6.0 6.0 6.1 6.3 6.5 6.8 7.0 7.2 7.6 7.6 7.5 7.4 7.4 6.9 6.1 8.0 7.6 7.5 7.4 7.6 7.8 7.8 7.7 7.8 7.9 8.2 8.3 7.6 8.5 8.4 8.1 8.5 8.2 8.4 8.7 8.9 9.2 9.1 9.5
5.0 5.1 5.2 5.3 5.4 5.6 5.6 5.7 5.7 5.8 5.9 6.1 6.4 6.7 6.9 7.3 7.3 7.5 7.5 7.5 7.3 6.9 8.0 8.4 8.5 8.7 8.3 8.1 8.2 8.4 8.3 8.1 8.0 8.1 7.9 7.7 8.1 8.3 8.0 8.3 8.2 8.5 8.7 9.3 9.4 9.0 9.3
4.9 5.0 5.0 5.1 5.3 5.5 5.6 5.7 5.8 5.9 5.9 6.1 6.1 6.4 6.6 6.8 7.2 7.4 7.2 6.3 6.8 7.8 8.4 8.7 8.8 8.9 9.1 9.1 8.5 8.7 8.9 8.7 8.5 8.4 8.2 8.9 8.7 8.2 8.2 7.9 8.3 8.5 8.6 8.6 9.0 9.4 9.7
4.8 4.9 5.0 5.2 5.3 5.4 5.5 5.5 5.6 5.6 5.8 6.0 6.2 6.3 6.4 6.5 6.6 6.7 6.6 6.1 7.2 7.8 8.4 8.5 8.4 8.6 8.8 8.8 8.6 8.7 8.5 9.4 8.7 9.4 8.6 8.7 8.8 9.2 9.4 8.5 8.4 8.6 8.8 8.2 9.1 9.3 9.5
4.9 4.9 5.1 5.2 5.4 5.5 5.4 5.5 5.4 5.4 5.5 5.6 5.7 5.9 6.1 5.9 6.0 5.9 5.4 5.9 6.4 6.9 7.0 6.8 7.0 7.6 8.0 8.7 9.2 9.4 9.1 9.1 8.8 8.8 9.6 8.5 8.9 9.3 9.6 9.6 8.5 8.5 8.4 9.1 8.9 8.9 9.2
5.2 5.2 5.2 5.3 5.5 5.5 5.5 5.5 5.3 5.2 5.3 5.3 5.2 5.2 4.4 4.6 4.8 4.5 4.4 4.6 5.5 6.0 5.5 5.7 6.1 6.5 7.2 7.6 8.2 8.7 9.1 9.4 9.4 8.6 9.1 9.4 9.5 8.4 9.6 9.6 8.6 8.3 8.6 9.3 9.2 8.9 9.1
5.3 5.4 5.4 5.4 5.4 5.3 5.4 5.3 5.3 5.2 5.1 4.8 4.5 4.5 4.2 4.2 4.0 3.6 3.9 4.4 4.6 4.6 4.7 4.7 5.0 5.4 6.0 6.4 7.0 7.8 8.5 9.1 9.0 9.5 9.5 9.6 9.4 8.9 9.1 9.5 9.5 8.8 8.6 8.6 9.5 8.4 9.0
5.4 5.4 5.4 5.3 5.3 5.3 5.3 5.1 4.9 4.7 4.6 4.3 4.2 3.9 3.4 3.6 3.8 4.1 4.3 4.4 4.6 4.7 5.0 4.9 5.0 5.2 5.5 5.8 6.4 6.8 7.3 8.1 8.6 9.2 9.5 9.5 9.6 9.5 9.4 9.5 9.5 9.1 8.5 9.4 9.4 9.3 9.3
5.5 5.3 5.4 5.2 5.2 5.2 5.1 5.0 4.8 4.7 4.6 4.1 3.8 3.8 3.9 4.2 4.1 3.9 4.2 4.6 4.8 5.0 4.9 5.1 5.0 5.1 5.5 5.7 6.0 6.0 6.6 7.4 8.0 8.5 9.1 9.4 9.3 9.4 9.3 9.3 8.9 9.2 8.5 8.8 9.4 9.4 7.9
5.2 5.3 5.3 5.3 5.3 5.1 4.9 4.7 4.8 4.7 4.8 4.1 4.2 4.1 4.0 4.3 4.6 4.7 4.6 4.6 4.6 4.8 5.3 5.8 5.7 5.8 5.8 6.0 6.1 5.9 6.0 6.8 7.1 7.7 8.6 8.9 8.6 9.1 9.3 9.0 9.5 9.4 9.1 8.6 9.0 8.1 9.2
5.1 5.1 5.1 5.1 5.0 4.9 4.8 4.8 4.7 4.8 4.7 4.2 4.2 4.2 4.6 4.3 4.7 5.0 5.2 5.4 6.3 6.6 7.2 7.0 7.3 7.2 7.4 7.5 6.8 6.7 7.2 6.5 7.0 7.9 8.0 8.6 9.1 9.2 9.2 8.9 9.3 9.5 9.5 9.4 8.8 8.7 8.8
4.9 4.9 5.0 5.0 4.8 4.8 4.8 4.8 4.6 4.0 3.9 4.3 4.6 4.9 4.8 4.8 5.0 5.7 6.1 7.2 7.8 8.0 7.6 7.6 7.6 7.8 7.6 7.5 7.8 7.4 8.0 7.5 7.1 6.8 6.7 6.8 7.8 9.3 9.3 8.8 9.4 9.5 9.4 9.5 8.7 9.0 8.9
4.8 4.8 4.7 4.8 4.6 4.7 4.7 4.6 4.4 4.1 4.3 4.5 4.7 5.0 5.4 5.7 6.7 7.1 7.8 7.9 7.9 8.2 7.8 7.7 7.6 7.9 8.1 7.4 7.2 7.9 7.9 7.5 6.8 6.5 6.4 6.0 6.0 7.7 9.3 9.1 9.2 9.3 9.1 9.1 9.6 9.5 8.9
4.7 4.5 4.4 4.3 4.4 4.5 4.5 4.4 4.3 4.1 4.5 4.7 5.6 6.0 6.6 6.7 7.5 7.6 8.0 8.0 7.9 7.9 7.5 7.3 7.7 7.9 7.6 7.5 7.3 7.5 7.6 7.7 7.4 6.6 6.1 6.1 6.0 7.2 8.9 9.1 9.3 9.4 9.2 9.5 9.5 8.9 9.5
4.2 4.2 4.2 4.1 3.9 4.1 4.2 4.2 4.3 4.5 5.2 5.4 6.4 6.9 6.9 7.1 7.5 7.6 7.9 7.8 7.8 7.9 7.6 7.5 7.5 7.5 7.3 7.3 7.2 7.3 7.5 8.0 8.2 7.0 6.6 6.4 6.2 6.3 8.3 9.1 9.4 9.3 9.4 9.2 9.4 9.1 9.4
3.8 3.7 3.7 3.7 3.5 3.5 3.8 4.3 4.9 5.4 6.0 6.3 6.8 6.9 6.8 7.0 7.9 8.1 7.6 7.7 7.8 7.7 7.3 7.2 7.2 6.9 6.9 7.0 7.5 7.6 7.9 8.4 8.4 8.0 7.4 7.1 6.9 7.1 7.3 8.6 9.4 9.4 9.4 9.4 9.3 8.3 8.8
3.3 3.4 3.4 3.5 3.6 4.0 4.5 4.9 5.7 6.2 6.6 6.9 6.9 6.8 6.9 7.3 7.6 7.6 7.9 7.4 7.5 7.3 7.1 7.3 6.9 6.7 6.7 6.6 6.8 7.3 7.6 8.4 7.9 7.6 7.4 7.2 7.4 7.4 7.7 8.6 9.3 9.2 9.0 8.8 8.7 8.4 8.6
3.2 3.4 3.6 3.9 4.4 4.8 5.4 6.0 6.5 6.9 7.3 7.2 7.0 7.0 6.9 7.3 7.5 7.8 7.7 7.6 7.4 7.6 7.1 6.9 6.7 6.5 6.6 6.4 7.4 7.9 8.1 9.2 7.9 7.0 8.6 6.2 7.0 7.9 8.3 8.3 8.5 8.0 8.4 8.5 8.7 8.1 8.3
Wind_Speed
17 18 18 18 18 19 19 19 21 21 22 23 23 25 26 27 28 29 31 30 29 28 27 21 14 9 6 6 10 10 4 6 12 15 19 18 18 17 19 19 17 14 17 7 9 8 11
17 18 19 19 19 20 20 21 21 21 22 23 23 25 27 29 29 31 33 31 30 29 27 18 8 5 5 11 4 3 5 6 13 20 20 20 15 16 17 19 17 10 18 17 11 10 10
16 17 19 19 19 20 21 21 22 23 24 24 25 25 27 28 31 34 35 33 31 26 21 10 5 5 8 14 6 2 3 4 15 19 21 19 18 15 16 17 14 15 13 15 16 14 12
16 16 17 17 18 19 20 22 23 24 25 27 28 29 30 30 32 34 37 36 31 21 9 4 6 8 7 3 6 9 11 9 8 16 21 19 16 16 19 14 11 17 18 18 19 19 14
16 16 17 16 17 18 18 20 21 23 24 26 28 30 33 33 35 37 38 36 29 8 3 6 5 5 8 6 7 6 11 13 7 11 13 13 13 16 18 16 15 18 18 22 21 19 14
15 16 16 16 17 18 19 20 20 21 23 25 27 29 33 34 35 38 41 40 4 6 7 8 7 6 8 5 5 5 4 10 10 13 15 13 12 16 17 17 18 22 21 22 21 16 16
16 17 17 17 17 18 19 20 20 21 21 24 26 28 33 35 35 37 26 5 4 6 5 10 10 14 14 5 8 5 5 10 14 14 19 20 16 21 25 24 24 24 24 24 20 16 19
15 15 16 17 17 17 18 19 20 21 22 24 26 28 31 34 36 32 15 7 8 5 11 13 18 20 23 15 9 13 7 11 17 18 21 18 25 24 22 23 25 25 25 24 16 19 21
15 15 17 17 17 18 18 18 19 20 21 22 24 27 32 35 32 12 12 14 8 7 7 11 13 12 15 16 19 19 17 17 16 21 22 24 23 22 22 21 25 23 25 21 22 17 14
14 15 15 16 18 18 19 19 18 18 19 19 21 23 30 43 10 12 6 13 14 4 5 9 5 4 6 7 10 22 22 19 21 25 25 26 25 22 25 25 22 25 24 23 22 20 18
13 15 16 17 18 18 18 19 19 18 19 18 18 20 27 24 11 8 10 15 12 3 5 2 5 4 1 10 14 5 23 22 25 25 19 30 26 25 29 24 23 25 21 22 21 23 22
14 15 17 18 19 18 18 19 20 21 20 19 18 19 24 8 7 11 18 17 5 0 7 4 3 6 10 13 14 11 6 21 19 24 25 30 24 25 26 24 24 24 22 25 21 19 19
16 16 17 20 20 21 20 19 19 20 21 21 19 21 17 12 8 19 17 7 4 4 7 9 16 17 17 16 18 13 16 16 18 18 24 29 29 28 20 22 24 22 21 15 16 15 19
15 17 18 20 21 22 21 18 18 18 19 20 23 27 10 11 10 14 9 7 6 13 21 24 24 22 23 22 23 21 21 20 24 28 21 22 26 31 27 26 23 22 22 16 22 17 20
16 16 17 19 21 20 20 16 17 17 17 18 24 7 8 8 7 6 7 9 7 10 11 16 24 23 23 20 20 23 26 26 26 24 27 24 30 22 29 26 24 25 22 26 24 21 15
16 17 17 19 20 19 18 17 15 15 14 14 8 6 9 3 3 6 7 15 13 10 17 22 23 15 24 26 24 23 25 28 31 28 26 28 29 28 24 27 29 30 22 19 18 24 26
16 17 18 18 19 19 17 16 15 14 14 11 7 5 7 1 3 3 8 8 13 16 18 12 19 25 25 27 27 26 26 29 30 32 27 29 24 28 26 26 27 21 23 19 20 20 18
14 17 18 19 19 18 17 16 15 15 15 12 2 3 4 4 5 4 10 10 11 22 19 22 22 27 25 28 29 28 31 29 31 34 33 28 23 23 33 24 26 28 29 29 12 25 18
17 16 18 19 19 18 17 15 15 14 10 5 3 8 6 6 7 12 19 24 24 26 24 24 24 25 25 29 29 29 29 31 31 35 32 22 22 21 26 29 23 29 31 26 23 17 25
18 18 20 19 20 19 18 17 15 14 12 5 4 4 4 8 13 18 21 24 25 22 25 24 24 23 26 28 28 24 33 32 31 34 35 17 23 24 21 27 24 26 30 29 25 16 23
18 20 21 21 20 20 19 18 16 14 13 4 4 6 11 10 11 17 19 19 22 25 22 22 23 25 25 27 28 28 32 31 32 29 29 25 27 27 29 34 32 31 30 29 29 31 24
20 21 22 21 20 21 22 21 18 14 13 5 4 3 7 15 21 23 22 25 28 29 26 27 26 27 24 25 24 30 30 29 29 17 12 19 23 27 32 33 34 35 31 31 31 34 32
23 23 22 22 21 21 22 21 21 17 11 3 4 11 9 14 22 20 21 28 27 26 24 20 22 23 25 25 25 27 27 32 28 18 21 14 16 25 28 33 30 30 33 30 31 29 30
25 24 25 23 22 22 22 22 21 20 16 9 5 4 6 15 18 23 27 29 30 28 28 26 24 22 30 24 20 23 27 31 32 28 21 21 23 19 20 27 33 21 29 33 28 24 28
23 23 22 23 23 23 23 23 22 22 22 11 11 6 3 12 16 25 26 24 29 26 24 26 29 23 20 20 15 12 16 26 30 26 23 21 19 10 18 23 22 27 28 29 28 30 26
23 24 25 25 25 24 24 24 25 23 23 14 10 10 5 7 19 25 24 26 23 18 21 25 22 14 16 7 8 20 14 19 23 28 28 27 24 18 16 24 28 22 26 22 20 22 27
24 25 24 26 26 25 26 26 25 25 24 15 11 17 5 6 21 26 16 17 19 14 11 15 14 10 8 5 9 19 21 23 22 21 14 19 16 19 17 17 18 24 21 25 26 19 22
24 25 25 24 24 26 27 27 25 25 24 18 10 14 7 4 20 27 24 19 18 14 13 13 8 9 5 10 9 9 13 18 14 23 22 11 12 11 18 19 15 11 9 14 9 7 10
24 25 25 26 28 28 28 27 27 26 26 21 13 14 13 7 12 14 20 23 21 25 15 9 7 11 3 5 6 5 13 13 20 5 18 7 4 3 9 13 5 10 11 7 1 3 4
Wind_Direction
32 33 31 26 23 20 17 13 12 10 6 360 355 351 346 338 333 329 326 325 322 320 315 319 307 288 266 237 253 131 150 179 190 203 218 214 222 226 235 239 234 225 264 264 275 273 246
29 27 27 22 21 19 18 17 14 9 3 359 353 348 344 338 332 326 322 322 321 317 313 313 290 225 245 261 346 334 280 192 208 202 218 215 222 231 246 254 241 232 250 269 259 250 224
28 23 22 19 18 16 15 14 10 6 2 359 355 349 341 338 332 325 321 320 317 312 307 306 244 236 260 255 328 194 240 258 211 210 215 222 226 237 240 258 244 251 255 251 244 238 234
22 22 19 18 15 13 13 10 6 3 0 357 354 349 342 339 332 325 319 317 312 310 295 270 203 258 269 243 315 267 259 259 246 222 225 219 226 243 240 262 246 225 238 249 228 219 215
16 17 14 12 11 10 9 7 4 1 358 354 353 347 340 338 334 327 319 311 307 282 234 184 218 250 270 118 228 234 235 252 220 217 224 244 223 233 234 236 233 224 236 229 254 216 209
15 12 10 8 8 7 5 4 1 359 356 354 351 347 337 337 335 326 320 308 248 256 219 224 256 264 238 267 354 305 247 217 221 208 216 212 212 223 231 217 228 229 222 243 234 193 212
10 5 2 1 359 359 0 359 358 356 355 353 351 347 336 334 332 324 324 313 300 185 342 290 306 282 282 251 291 225 171 205 204 209 212 208 216 219 221 227 234 248 240 231 232 233 184
5 1 0 360 360 356 356 356 354 355 353 352 350 346 336 331 328 321 14 58 43 329 302 280 257 256 256 267 279 249 194 204 207 216 209 220 227 226 234 243 237 249 256 258 226 242 231
0 0 356 355 354 354 352 350 350 350 352 351 350 345 337 328 324 326 43 35 351 324 270 286 241 251 248 227 239 248 201 214 218 220 214 223 224 241 254 237 251 240 248 250 256 250 228
358 355 351 350 349 348 349 350 349 349 351 351 351 347 336 326 304 324 68 352 344 355 276 271 210 269 218 251 265 241 242 215 224 233 226 234 233 231 219 242 239 245 234 251 258 249 250
352 350 349 348 346 344 341 344 345 347 350 351 351 345 330 332 318 335 334 326 326 252 318 85 149 67 167 211 317 235 219 204 232 226 238 242 234 233 243 231 231 247 244 252 250 259 260
345 346 347 342 342 343 341 339 341 343 346 348 345 338 325 331 290 335 323 308 259 254 245 235 229 234 219 226 246 276 265 226 236 244 242 246 250 233 244 231 236 240 242 246 236 237 251
340 340 341 343 343 343 340 338 338 339 341 341 337 326 315 311 323 314 314 272 229 176 300 263 261 252 258 261 277 233 253 224 226 230 238 244 239 249 229 251 234 231 230 232 232 230 243
340 334 337 336 340 341 337 335 335 337 339 340 329 317 316 294 308 311 296 236 204 241 255 278 287 282 276 283 282 274 265 254 228 240 248 238 242 227 235 228 239 224 227 233 227 229 236
334 331 330 330 337 339 343 330 329 331 336 339 314 323 302 305 292 287 262 222 227 250 281 315 322 302 281 262 255 266 272 269 254 236 239 249 253 237 221 220 228 229 225 229 243 259 259
326 325 326 324 331 334 337 342 327 326 328 338 311 304 268 330 250 253 237 238 248 275 322 316 295 286 282 282 274 260 255 260 265 254 251 240 262 255 250 213 216 237 218 223 230 238 251
319 323 324 318 322 331 331 335 340 336 329 319 290 302 95 137 202 238 227 238 285 291 303 295 289 279 273 276 271 269 267 265 259 259 254 256 237 252 251 231 215 221 233 224 228 229 244
308 312 316 312 316 320 323 327 334 331 331 282 276 259 106 153 228 225 240 256 286 277 277 276 276 282 272 271 280 276 262 261 260 262 250 252 246 245 244 248 217 234 220 230 216 230 233
305 305 306 310 308 309 315 315 317 322 330 316 257 263 218 218 252 251 262 267 264 274 275 278 278 272 269 268 268 262 265 270 269 265 261 251 246 237 243 239 227 219 237 222 231 227 233
303 305 302 299 301 305 306 304 305 306 307 303 275 272 239 217 247 265 273 274 278 278 280 278 272 273 270 260 257 261 272 255 264 256 267 258 248 239 232 236 227 221 232 235 218 231 233
296 297 297 299 295 295 299 299 290 294 295 288 238 245 255 268 248 243 251 262 274 280 279 278 274 265 261 266 260 254 263 261 264 275 275 263 249 253 244 237 237 227 219 231 235 225 226
290 290 290 292 295 291 289 290 284 278 290 266 265 257 258 266 272 270 268 269 275 278 278 272 265 277 269 266 273 262 255 251 255 281 341 293 245 241 246 241 235 245 227 213 230 234 226
289 287 288 290 291 290 288 290 282 273 262 261 255 266 266 270 272 269 266 271 272 276 273 266 273 280 278 270 261 257 260 265 259 272 289 290 280 231 232 239 233 235 238 234 221 233 232
288 291 286 283 289 288 288 288 283 274 257 262 255 268 266 268 266 264 263 265 270 270 273 275 279 266 265 283 287 279 275 268 268 243 263 269 277 277 224 231 232 236 231 238 237 228 233
287 288 287 283 286 288 286 284 281 278 270 263 268 254 253 263 262 270 269 265 263 269 266 270 267 272 294 279 277 258 251 246 252 238 244 251 261 274 239 233 237 224 226 231 229 237 227
285 284 285 283 280 282 282 282 280 277 275 269 266 258 259 274 267 279 270 266 267 272 279 274 279 298 311 258 244 246 253 220 224 233 236 246 244 253 250 226 227 223 216 234 227 242 236
281 282 284 287 279 281 283 282 281 276 276 272 269 268 247 260 277 268 257 259 265 271 271 287 292 290 258 258 235 240 237 243 218 214 217 212 228 233 231 250 216 231 219 209 218 238 219
285 282 281 285 283 280 280 281 281 279 275 274 269 259 233 255 276 258 245 245 260 260 269 284 288 256 247 250 218 228 218 215 230 234 217 204 203 211 225 225 221 210 137 197 223 231 246
281 280 280 281 280 280 278 277 281 279 272 275 272 270 254 257 269 271 250 259 268 270 272 268 261 275 259 298 246 253 236 214 202 223 227 203 211 283 233 206 44 16 357 61 287 188 197